軌道要素
Epoch 2024 Oct. 17.0 TT = JDT 2460600.5
T 2024 Oct. 12.73503 TT Rudenko
q 4.9728722 (2000.0) P Q
z +0.0004427 Peri. 255.62325 +0.09938702 +0.62946663
+/-0.0000016 Node 305.80842 +0.71284779 -0.58539201
e 0.9977984 Incl. 108.14590 -0.69424077 -0.51096766
From 159 observations 2023 Jan. 24-2024 Nov. 10, mean residual 0".6.
|